Location: Fort Worth, Tx
(32.7431°N, 97.3695°W)
Time: 11:59:29
(UTC-04:00)

Vanguard 2 Rocket - Pass Details

Date: 07 March 2024
Orbit: 555 x 3307 km, 32.9° (Epoch: 23 April)

Event Time Altitude Azimuth Distance (km) Brightness Sun altitude
Rises 21:18:46 0° 262° (W) 5,860 12.3 -23.2°
Reaches altitude 10° 21:26:41 10° 235° (SW) 5,494 11.4 -24.8°
Maximum altitude 21:31:46 12° 217° (SW) 5,637 11.2 -25.9°
Drops below altitude 10° 21:37:20 10° 199° (SSW) 6,058 11.1 -27.0°
Sets 21:47:55 0° 174° (S) 7,280 11.3 -29.2°
